Hourly Data Report for July 23, 2021

ALGONQUIN PARK EAST GATE
ONTARIO
Current Station Operator: ECCC - MSC

45°32'00.000" N
78°16'00.000" W
397.00 m
6080192
71581
TNK

Download Data

Hourly Data (July 2021)
Hourly Data Report for July 23, 2021
TIME
LST
Temp Definition
°C
Dew Point Definition
°C
Rel Hum Definition
%
Precip. Amount Definition
mm

Wind Dir Definition
10's deg

Wind Spd Definition
km/h
Visibility Definition
km
Stn Press Definition
kPa
Hmdx Definition


Wind Chill Definition


Weather Definition


00:00 13.1 12.7 97 0.0   0   97.48     LegendNANA
01:00 12.9 12.5 97 0.0   0   97.49     LegendNANA
02:00 11.8 11.4 97 0.0   0   97.48     LegendNANA
03:00 11.1 10.7 97 0.0   0   97.46     LegendNANA
04:00 10.3 9.9 97 0.0   0   97.47     LegendNANA
05:00 9.4 9.0 97 0.0   0   97.50     LegendNANA
06:00 10.2 10.0 98 0.0   0   97.54     LegendNANA
07:00 13.0 12.4 96 0.0   0   97.55     LegendNANA
08:00 16.6 13.9 84 0.0 0 1   97.55     LegendNANA
09:00 18.8 14.1 74 0.0 10 1   97.56     LegendNANA
10:00 20.6 13.0 62 0.0 28 2   97.53     LegendNANA
11:00 22.0 12.5 55 0.0 33 4   97.51 25   LegendNANA
12:00 22.6 10.9 47 0.0 1 4   97.47     LegendNANA
13:00 22.4 9.8 45 0.0 3 4   97.45     LegendNANA
14:00 23.7 9.0 39 0.0 34 5   97.43 25   LegendNANA
15:00 24.4 11.0 43 0.0 1 4   97.37 26   LegendNANA
16:00 24.7 12.5 47 0.0 2 2   97.34 27   LegendNANA
17:00 22.9 11.6 49 0.0 6 2   97.30 25   LegendNANA
18:00 23.2 12.1 50 0.0 11 4   97.28 26   LegendNANA
19:00 19.9 14.9 73 0.2   0   97.28     LegendNANA
20:00 17.0 14.3 84 0.0 0 1   97.30     LegendNANA
21:00 15.0 13.5 91 0.0   0   97.32     LegendNANA
22:00 13.8 12.8 94 0.0   0   97.33     LegendNANA
23:00 13.1 12.4 95 0.0   0   97.34     LegendNANA

Notes on Data Quality.

Legend

  • E = Estimated
  • M = Missing
  • NA = Not Available*
  • [empty] = Indicates an unobserved value
Date modified: